Simultaneous Nadir Overpasses (SNOs) Predictions

Prediction of SNOs between METOP-B and NOAA-19 Satellite Orbit:

Table of predicted SNOs for the next 14.0 days since TLE Epoch: 7/26/2019
Index Date (METOP-B) Time (METOP-B) Lat,Lon (METOP-B) SZA (METOP-B ) Date (NOAA-19) Time (NOAA-19) Lat,Lon (NOAA-19) SZA (NOAA-19 ) Distance(km) Time Diff (sec)
1 07/27/2019 05:52:28 79.41, 108.75 60.49 07/27/2019 05:51:23 79.39, 108.73 60.45 2.08 65
2 07/27/2019 06:43:09 -79.40, -83.96 119.52 07/27/2019 06:42:23 -79.37, -83.87 119.55 3.78 46
3 07/27/2019 07:33:50 79.39, 83.30 60.48 07/27/2019 07:33:24 79.39, 83.17 60.47 2.63 26
4 07/27/2019 08:24:31 -79.39,-109.41 119.52 07/27/2019 08:24:24 -79.38,-109.43 119.53 1.14 7
5 07/27/2019 09:15:12 79.38, 57.85 60.48 07/27/2019 09:15:24 79.37, 57.90 60.48 1.29 12
6 07/27/2019 10:05:53 -79.37,-134.86 119.52 07/27/2019 10:06:25 -79.38,-134.99 119.51 2.94 32
7 07/27/2019 10:56:34 79.36, 32.40 60.48 07/27/2019 10:57:25 79.37, 32.34 60.50 1.80 51
8 07/27/2019 11:47:15 -79.36,-160.31 119.53 07/27/2019 11:48:25 -79.36,-160.27 119.51 0.80 70
9 08/07/2019 05:24:29 79.42, 115.87 63.28 08/07/2019 05:23:23 79.41, 115.92 63.26 1.40 66
10 08/07/2019 06:15:10 -79.42, -76.78 116.71 08/07/2019 06:14:21 -79.41, -76.85 116.73 1.61 49
11 08/07/2019 07:05:51 79.41, 90.42 63.28 08/07/2019 07:05:24 79.42, 90.36 63.29 1.71 27
12 08/07/2019 07:56:32 -79.41,-102.23 116.71 08/07/2019 07:56:21 -79.39,-102.13 116.72 2.94 11
13 08/07/2019 08:47:13 79.39, 64.96 63.28 08/07/2019 08:47:24 79.39, 65.08 63.30 2.41 11
14 08/07/2019 09:37:54 -79.40,-127.69 116.71 08/07/2019 09:38:22 -79.40,-127.69 116.70 0.33 28
15 08/07/2019 10:28:35 79.38, 39.51 63.28 08/07/2019 10:29:25 79.40, 39.52 63.32 2.53 50
16 08/07/2019 11:19:16 -79.38,-153.14 116.71 08/07/2019 11:20:22 -79.37,-152.97 116.69 3.41 66




NCC Satellite Simultaneous Nadir Overpasses (SNOs) Prediction Service
